• Join FlightAware (Why Join?)
  • Login
  • US Flag 
08:01PM EST


 

Airport Tracker/Info


-or-


 

Live Flight TrackerFlight Track Log ✈ DAL3688 ✈ 20-Apr-2013 ✈ KDTW - KMDT

Flight Track Log - Related Links

Times and Time Zones

All times are in EDT time to prevent confusion due to time zone crossing. See the DAL3688 flight status page for this flight to view local times or setup timezone preferences in your user account.

Time Position Orientation Groundspeed Altitude Reporting Facility
EDT Latitude Longitude Course Direction KTS MPH feet Rate Location/Type
10:31AM 42.2036 -83.3556 94° East 163 188 1,400  Level Cleveland Center
10:32AM 42.1497 -83.3503 176° South 214 246 4,300 2,611 Climbing Cleveland Center
10:33AM 42.0844 -83.2914 146° Southeast 291 335 7,100 2,354 Climbing Cleveland Center
10:34AM 42.2167 -82.8828 90° East  Level FlightAware Approximate
10:34AM 42.0886 -83.1936 87° East 316 364 9,400  Level Cleveland Center
10:35AM 42.2167 -82.7258 90° East  Level FlightAware Approximate
10:35AM 42.1122 -83.0744 75° East 311 358 11,300  Level Cleveland Center
10:36AM 42.2167 -82.5688 90° East  Level FlightAware Approximate
10:36AM 42.1358 -82.9381 77° East 337 388 13,500  Level Cleveland Center
10:37AM 42.2155 -82.4119 94° East  Level FlightAware Approximate
10:37AM 42.1617 -82.7989 76° East 368 423 15,700  Level Cleveland Center
10:38AM 42.1872 -82.6483 77° East 390 449 17,600 1,850 Climbing Cleveland Center
10:39AM 42.2150 -82.4981 76° East 400 460 19,400 1,650 Climbing Cleveland Center
10:40AM 42.2175 -82.3411 89° East 411 473 20,900 1,400 Climbing Cleveland Center
10:41AM 42.2072 -82.1808 95° East 416 479 22,200 1,300 Climbing Cleveland Center
10:42AM 42.1931 -81.9928 96° East 441 507 23,500 1,200 Climbing Cleveland Center
10:43AM 42.1364 -81.8489 118° Southeast 441 507 24,600 950 Climbing Cleveland Center
10:44AM 42.0819 -81.6853 114° Southeast 457 526 25,400 800 Climbing Cleveland Center
10:45AM 42.0269 -81.5308 116° Southeast 462 532 26,200 700 Climbing Cleveland Center
10:46AM 41.9758 -81.3875 116° Southeast 473 544 26,800 400 Climbing Cleveland Center
10:47AM 41.9164 -81.2222 116° Southeast 473 544 27,000 100 Climbing Cleveland Center
10:48AM 41.8569 -81.0569 116° Southeast 473 544 27,000  Level Cleveland Center
10:49AM 41.7992 -80.8950 116° Southeast 478 550 27,000  Level Cleveland Center
10:50AM 41.7389 -80.7333 117° Southeast 478 550 27,000  Level Cleveland Center
10:51AM 41.6744 -80.5608 117° Southeast 472 543 27,000  Level Cleveland Center
10:52AM 41.6158 -80.4028 116° Southeast 472 543 27,000 -350 Level Cleveland Center
10:53AM 41.5592 -80.2419 115° Southeast 472 543 26,300 -850 Descending Cleveland Center
10:54AM 41.4983 -80.0814 117° Southeast 472 543 25,300 -950 Descending Cleveland Center
10:55AM 41.4433 -79.9406 117° Southeast 472 543 24,400 -650 Descending Cleveland Center
10:56AM 41.3775 -79.7669 117° Southeast 472 543 24,000 -200 Descending Cleveland Center
10:57AM 41.3200 -79.6100 116° Southeast 472 543 24,000 -300 Level Cleveland Center
10:58AM 41.2603 -79.4589 118° Southeast 467 537 23,400 -800 Descending Cleveland Center
10:59AM 41.2003 -79.3053 117° Southeast 467 537 22,400 -1,000 Descending Cleveland Center
11:00AM 41.1422 -79.1550 117° Southeast 467 537 21,400 -1,000 Descending Cleveland Center
11:01AM 41.0842 -79.0103 118° Southeast 455 524 20,400 -1,000 Descending Cleveland Center
11:02AM 41.0278 -78.8600 116° Southeast 455 524 19,400 -1,000 Descending Cleveland Center
11:03AM 40.9692 -78.7131 118° Southeast 450 518 18,400 -950 Descending Cleveland Center
11:04AM 40.9125 -78.5692 117° Southeast 450 518 17,500 -932 Descending Cleveland Center
11:07AM 40.7817 -78.2453 118° Southeast 427 491 15,200 -961 Descending New York Center
11:08AM 40.7256 -78.1078 118° Southeast 427 491 14,200 -992 Descending New York Center
11:09AM 40.6714 -77.9733 118° Southeast 427 491 13,200 -1,008 Descending New York Center
11:10AM 40.6189 -77.8419 118° Southeast 416 479 12,200 -1,017 Descending New York Center
11:11AM 40.5678 -77.7164 118° Southeast 410 472 11,200 -1,050 Descending New York Center
11:12AM 40.5222 -77.6081 119° Southeast 365 420 10,100 -1,240 Descending New York Center
11:13AM 40.4853 -77.4869 112° Southeast 322 371 8,700 -1,388 Descending New York Center
11:14AM 40.4494 -77.3825 114° Southeast 317 365 7,300 -1,388 Descending New York Center
11:15AM 40.4086 -77.2942 121° Southeast 297 342 5,900 -1,160 Descending New York Center
11:16AM 40.3672 -77.2111 123° Southeast 280 322 5,000 -458 Descending New York Center
11:17AM 40.3239 -77.1253 123° Southeast 280 322 5,000  Level New York Center
11:18AM 40.2803 -77.0425 125° Southeast 280 322 5,000  Level New York Center
11:19AM 40.2303 -76.9644 130° Southeast 280 322 5,000  Level New York Center
11:20AM 40.1800 -76.8894 131° Southeast 280 322 5,000 -454 Level New York Center
11:21AM 40.1397 -76.8206 127° Southeast 247 284 4,100 -958 Descending New York Center
11:22AM 40.1225 -76.7486 107° East 234 269 3,100 -984 Descending New York Center